Showing default

USA 342, 55263

Orbit data source: Space-Track

USA 342, 55263 is a payload satellite owned by USSF SSC (US) in GEO that was launched on Sun, 15 Jan 2023 UTC via an FALCON HEAVY launch vehicle from the Air Force Eastern Test Range (AFETR). Payload-class satellites include a variety of spacecraft equipped with specific instruments for various scientific and technological missions. These include communications satellites like Starlink; space stations such as the ISS; scientific satellites like the Hubble; Earth observation satellites from companies like Planet Labs, Umbra, and HawkEye 360; GPS; miniature CubeSats for education and research; and military/defense satellites.

Not visible in the next 10 days
Identifier
55263, 2023-008A
Orbit
GEO
Country
Flag of USUS
Related business
Manufacturer
Unknown (US)
Mission
Operational Defense Classified
Bus & Motor
UNKNOWN, Unknown motor
Mass
~3,200 kg wet, 2,800 kg dry
Launch date (UTC)
2023-01-15 (3 years ago)
Launch vehicle
FALCON HEAVY
Launch site
Air Force Eastern Test Range (AFETR)
Object type
Payload
Rocket body
Debris
Shape & HBR
Unknown shape, 22.5 m
Radar Cross Section
RCS unknown

Expand to show TLE details & history
Last TLE update: 17 hours ago

TLE from 17 hours ago
0 USA 342
1 55263U 23008A   25346.56644097  .00000000  00000-0  00000+0 0  9994
2 55263   0.0153 350.0154 0000146 165.7682 153.5951  1.00269806 10648
Epoch: 2025-12-12T13:35Z
TLE epoch observation values (Epoch: 2025-12-12T13:35:40.499Z)
Latitude
-0.01928°
Longitude
23.94839°
Altitude
35,787.192 km
Speed
3.075 km/s
True Right ascension
20h 37m 29s
True Declination
0° 01' 09"
Sunlit
Object was in daylight at epoch
Visualization orbit readout
Latitude
Unknown
Longitude
Unknown
Altitude
Unknown
Speed
Unknown
Apparent Right ascension
Unknown
Apparent Declination
Unknown
Sunlit
N/A
Visualization observer readout
Local Sidereal Time
05:22:30
Azimuth
Unknown
Elevation
Unknown
Doppler factor
Unknown
Orbital elements
Apogee altitude
35,788.836 km
Perigee altitude
35,787.604 km
Semi-major axis
42,166.357 km
Eccentricity
0.00001
Inclination
0.0153°
RAAN
350.0154°
Arg. of periapsis
165.7682°
True anomaly
153.59584°
Mean anomaly
153.5951°
Eccentric anomaly
153.59547°
Mean motion
0.25067 °/min
Orbital period
1,436.18 mins
BSTAR
0
Loading maneuver chart data...
Computing Atmospheric mass density...
Loading historical data...
Loading historical data...
Loading historical data...
Loading historical data...
Loading historical data...
Loading historical data...
Loading historical data...
Other satellites on launch #8 in the year 2023 (2023-01-15 UTC)

Documentation

Showing up to 5 results
|